Regional Weather Roundup
Issued by NWS

Home | Current Version | Previous Version | Text Only | Print | Product List | Glossary On
Versions: 1 2 3 4 5 6 7 8 9 10 11 12 13 14 15 16 17 18 19 20 21 22 23 24 25 26 27 28 29 30 31 32 33 34 35 36 37 38 39 40 41 42 43 44 45 46 47 48 49 50
000
ASUS44 KJAN 260110
RWRMS

MISSISSIPPI HOURLY WEATHER ROUNDUP
NATIONAL WEATHER SERVICE JACKSON MS
800 PM CDT FRI JUL 25 2014

NOTE: "FAIR: INDICATES FEW OR NO CLOUDS BELOW 12,000 FEET WITH NO
SIGNIFICANT WEATHER AND/OR OBSTRUCTIONS TO VISIBILITY.

MSZ001>002-007>008-010>013-018>021-025>028-034>036-260200-
NORTHWEST MISSISSIPPI

CITY           SKY/WX    TMP DP  RH WIND       PRES   REMARKS
CLARKSDALE     FAIR      81  72  74 CALM      30.00R
CLEVELAND      FAIR      79  74  85 CALM      29.97F
GREENWOOD      CLEAR     76  70  82 CALM      29.98F
GREENVILLE     PTCLDY    80  72  76 E5        29.98S
GRENADA        FAIR      73  68  83 CALM      29.99S
OLIVE BRANCH   MOCLDY    79  68  69 CALM      29.99F
OXFORD         FAIR      75  68  78 CALM      30.01S
TUNICA         PTCLDY    77  66  69 SE5       29.98F
$$

MSZ003>006-009-014>017-022>024-029>033-037>039-260200-
NORTHEAST MISSISSIPPI

CITY           SKY/WX    TMP DP  RH WIND       PRES   REMARKS
BELMONT        FAIR      75  69  80 CALM      29.99F
COLUMBUS AFB   CLEAR     76  68  76 S2        29.99F
CORINTH        FAIR      73  68  83 CALM      29.98F
GOLDN TRIANGLE CLEAR     79  64  61 N3        29.99F
STARKVILLE     FAIR      73  64  73 CALM      29.99F
TUPELO         CLEAR     79  66  64 CALM      29.98F
$$

MSZ040-058-260200-
CENTRAL MISSISSIPPI

CITY           SKY/WX    TMP DP  RH WIND       PRES   REMARKS
JACKSON INTL   PTCLDY    82  72  71 N5        29.98F
JACKSON HAWKNS PTCLDY    84  70  62 N3        29.99S
MERIDIAN KEY   CLEAR     80  71  74 N5        29.98R
MERIDIAN NAS   CLEAR     80  71  74 CALM      29.99R
RAYMOND        FAIR      81  75  83 CALM      29.98F
VICKSBURG      PTCLDY    82  75  79 E3        29.98R
$$

MSZ059>079-260200-
SOUTH MISSISSIPPI

CITY           SKY/WX    TMP DP  RH WIND       PRES   REMARKS
BROOKHAVEN     FAIR      81  77  89 CALM      30.00S
COLUMBIA       FAIR      81  77  89 CALM      29.97R
HATTIESBURG    CLEAR     85  75  72 CALM      29.98R HX  93
MCCOMB         PTCLDY    86  73  65 N3        29.98F HX  93
NATCHEZ        PTCLDY    84  77  79 CALM      29.98S HX  94
PINE BELT      CLEAR     82  73  74 CALM      30.00R
$$

MSZ080>082-260200-
COASTAL MISSISSIPPI

CITY           SKY/WX    TMP DP  RH WIND       PRES   REMARKS
BAY ST LOUIS   CLEAR    N/A N/A N/A CALM      29.99R
BILOXI         MOCLDY    81  78  92 SW5       29.98S
PASCAGOULA     MOCLDY    81  77  88 W5        30.00R
GULFPORT       MOCLDY    83  76  79 CALM      29.97S HX  91
$$


USA.gov is the U.S. government's official web portal to all federal, state and local government web resources and services.